[[{"header":{"parameterUnit":"m.s-1","parameterCategory":1,"la1":30.2991,"la2":30.254,"lo1":-89.0895,"lo2":-89.0444,"dy":0.0017,"dx":0.0017,"nx":28,"ny":28,"refTime":"2025-07-25T21:00:00:Z","depth":0,"parameterNumber":2,"parameterNumberName":"U-component_of_WINDS"},"data":[0,0,0,0,0,0,0,0,0,0,0,0,0,0,0,0,0,0,0,0,0,0,0,0,0,0,0,0,0,0,0,0,0,0,0,0,0,0,0,0,0,0,0,0,0,0,0,0,0,0,0,0,0,0,0,0,0,0,-0.6864,-0.6864,0,-0.6828,-0.6828,-0.6827,-0.6796,-0.6795,-0.6795,-0.6795,-0.6756,-0.6755,-0.6754,0,0,0,0,0,0,0,0,0,0,0,0,0,-0.6904,-0.6903,-0.6864,-0.6864,-0.6863,-0.6828,-0.6828,-0.6827,-0.6796,-0.6795,-0.6795,-0.6795,-0.6756,-0.6755,-0.6754,0,0,0,0,0,0,0,0,0,0,0,0,0,-0.6879,-0.6903,-0.6864,-0.6843,-0.6841,-0.6828,-0.6828,-0.6827,-0.6796,-0.6795,-0.6795,-0.6794,-0.6756,-0.6755,-0.6754,-0.6759,0,0,-0.6751,-0.6751,0,0,0,0,0,0,0,0,-0.688,-0.6878,-0.6847,-0.6845,-0.6842,-0.6816,-0.6827,-0.6804,-0.6796,-0.6813,-0.6795,-0.6794,-0.6776,-0.6773,-0.6768,-0.6757,-0.6755,-0.6751,-0.675,-0.675,-0.675,0,0,0,0,0,0,0,-0.6882,-0.6879,-0.685,-0.6846,-0.6844,-0.6835,-0.6831,-0.6823,-0.6798,-0.6812,-0.6809,-0.6805,-0.6775,-0.6769,-0.6767,-0.6755,-0.6751,-0.675,-0.6749,-0.6749,-0.6746,-0.6746,0,0,0,0,0,0,-0.6887,-0.6881,-0.6851,-0.6849,-0.686,-0.6835,-0.683,-0.6825,-0.6798,-0.6793,-0.6806,-0.6804,-0.6771,-0.6768,-0.6765,-0.6769,-0.675,-0.6749,-0.6748,-0.6745,-0.6746,-0.6747,0,0,0,0,0,0,-0.6888,-0.6885,-0.6852,-0.6864,-0.6859,-0.6835,-0.6829,-0.6824,-0.6819,-0.6794,-0.6789,-0.6805,-0.677,-0.6767,-0.6761,-0.6767,-0.6748,-0.6747,-0.6745,-0.6745,-0.6746,-0.6776,0,0,0,0,0,0,-0.689,-0.6886,-0.6887,-0.6864,-0.6859,-0.6849,-0.6829,-0.6824,-0.6817,-0.6814,-0.6791,-0.6787,-0.677,-0.6763,-0.676,-0.6765,-0.6747,-0.6744,-0.6745,-0.6746,-0.6775,-0.6778,-0.6781,0,0,0,0,0,-0.6891,-0.6897,-0.6887,-0.6884,-0.686,-0.685,-0.6846,-0.6827,-0.6818,-0.6819,-0.6803,-0.6788,-0.6767,-0.6762,-0.6759,-0.6764,-0.6743,-0.6745,-0.6746,-0.6773,-0.6778,-0.6781,0,0,0,0,0,0,-0.692,-0.6893,-0.6883,-0.6881,-0.6868,-0.6844,-0.6845,-0.6832,-0.6821,-0.6818,-0.6794,-0.6789,-0.6786,-0.6774,-0.677,-0.6767,-0.6753,-0.6754,-0.6775,-0.6779,-0.6782,-0.6785,-0.6746,0,0,0,0,0,-0.6926,-0.692,-0.6897,-0.6898,-0.6892,-0.687,-0.6864,-0.6851,-0.6836,-0.683,-0.6814,-0.6799,-0.6789,-0.6783,-0.6773,-0.6773,-0.6767,-0.6775,-0.6778,-0.6781,-0.6782,-0.6781,-0.6784,-0.6751,-0.6751,-0.6751,0,0,-0.6939,-0.6923,-0.6921,-0.6903,-0.6891,-0.6885,-0.6865,-0.686,-0.6855,-0.6829,-0.6823,-0.681,-0.6792,-0.679,-0.6788,-0.678,-0.679,-0.6782,-0.6785,-0.6784,-0.6783,-0.6786,-0.6789,-0.6751,-0.6751,-0.6751,0,0,-0.6959,-0.6947,-0.6946,-0.6935,-0.6918,-0.6904,-0.6904,-0.6882,-0.6873,-0.6867,-0.6848,-0.6841,-0.6825,-0.6813,-0.6805,-0.6822,-0.6807,-0.6819,-0.6836,-0.6836,-0.6838,-0.6841,-0.6847,-0.685,-0.682,-0.682,-0.682,0,-0.6977,-0.6968,-0.6948,-0.6944,-0.6936,-0.6914,-0.6913,-0.6903,-0.6883,-0.6878,-0.687,-0.685,-0.6836,-0.683,-0.6835,-0.6829,-0.6828,-0.6822,-0.684,-0.6842,-0.6844,-0.6849,-0.6852,-0.6822,-0.6822,-0.6821,-0.6821,0,-0.6991,-0.6985,-0.6986,-0.6969,-0.6962,-0.6959,-0.6939,-0.6934,-0.6921,-0.6907,-0.6901,-0.6884,-0.687,-0.6868,-0.6855,-0.6861,-0.6857,-0.6844,-0.683,-0.6849,-0.6854,-0.6856,-0.6824,-0.6823,-0.6823,-0.6823,0,0,-0.7028,-0.7,-0.7001,-0.6993,-0.6973,-0.6967,-0.6964,-0.6951,-0.6948,-0.6935,-0.6931,-0.6918,-0.6907,-0.6898,-0.6884,-0.6884,-0.6899,-0.6871,-0.687,-0.6877,-0.6904,-0.6914,-0.6917,-0.6889,-0.6889,-0.6889,-0.6906,0,-0.7045,-0.7038,-0.7021,-0.7019,-0.7014,-0.6992,-0.6989,-0.6976,-0.6963,-0.6956,-0.6942,-0.6933,-0.6919,-0.6914,-0.6913,-0.6897,-0.6904,-0.6895,-0.6885,-0.6885,-0.6891,-0.692,-0.6929,-0.6946,-0.6908,-0.6908,-0.6908,0,-0.7064,-0.7054,-0.7052,-0.7033,-0.703,-0.7028,-0.7015,-0.7008,-0.6993,-0.6984,-0.6975,-0.6959,-0.6954,-0.694,-0.6933,-0.6928,-0.6922,-0.6914,-0.6914,-0.6913,-0.6898,-0.6919,-0.6951,-0.6954,-0.6911,-0.6911,-0.6911,0,-0.7092,-0.7077,-0.7075,-0.7069,-0.7046,-0.7045,-0.7035,-0.702,-0.7014,-0.7002,-0.6998,-0.6986,-0.6979,-0.697,-0.6951,-0.6943,-0.6946,-0.6931,-0.6938,-0.6939,-0.694,-0.694,-0.6972,-0.6936,-0.6936,-0.6936,-0.6936,0,-0.7113,-0.7113,-0.7087,-0.7086,-0.7085,-0.7065,-0.7064,-0.7053,-0.7039,-0.7035,-0.7015,-0.7011,-0.6986,-0.6979,-0.6964,-0.6961,-0.6958,-0.695,-0.6946,-0.6952,-0.6953,-0.6948,-0.6947,-0.6936,-0.6936,-0.6936,-0.6936,0,-0.7144,-0.7127,-0.7123,-0.7102,-0.7097,-0.7097,-0.7079,-0.7077,-0.7063,-0.7058,-0.7055,-0.7034,-0.7024,-0.7005,-0.699,-0.698,-0.698,-0.6973,-0.6986,-0.6983,-0.6992,-0.6992,-0.7022,-0.7025,-0.6987,-0.6987,-0.6988,0,-0.7159,-0.7159,-0.7138,-0.7135,-0.7126,-0.712,-0.7114,-0.7093,-0.7088,-0.7071,-0.707,-0.706,-0.7051,-0.7037,-0.702,-0.7008,-0.7001,-0.7012,-0.6999,-0.7005,-0.7001,-0.7002,-0.7002,-0.7015,-0.7016,-0.7016,-0.7017,0,-0.7188,-0.7179,-0.7172,-0.7161,-0.7155,-0.7145,-0.7135,-0.7132,-0.7109,-0.7104,-0.7095,-0.7088,-0.7074,-0.7064,-0.705,-0.7039,-0.7024,-0.7021,-0.7022,-0.7028,-0.7036,-0.7032,-0.6994,-0.702,-0.702,-0.702,-0.7019,-0.7019,-0.7211,-0.721,-0.7196,-0.7189,-0.7179,-0.7169,-0.7166,-0.7153,-0.7145,-0.7133,-0.7121,-0.7113,-0.7098,-0.7078,-0.7069,-0.7062,-0.7054,-0.7056,-0.7056,-0.7057,-0.706,-0.7037,-0.7059,-0.7059,-0.7059,-0.7059,-0.7059,0,-0.7239,-0.7229,-0.7223,-0.7209,-0.7203,-0.719,-0.7178,-0.7174,-0.7167,-0.7155,-0.7147,-0.7136,-0.7127,-0.7109,-0.7097,-0.7096,-0.7088,-0.7093,-0.7093,-0.7091,-0.7067,-0.7068,-0.7099,-0.7099,-0.7099,-0.7099,-0.7099,-0.7099,-0.7253,-0.7251,-0.7241,-0.7234,-0.7224,-0.7217,-0.7211,-0.7202,-0.7193,-0.7183,-0.7175,-0.7164,-0.7149,-0.7136,-0.7127,-0.7122,-0.7119,-0.7126,-0.7119,-0.7097,-0.7093,-0.7089,-0.7089,-0.7125,-0.7125,-0.7143,-0.7143,-0.7143]},{"header":{"parameterUnit":"m.s-1","parameterCategory":1,"la1":30.2991,"la2":30.254,"lo1":-89.0895,"lo2":-89.0444,"dy":0.0017,"dx":0.0017,"nx":28,"ny":28,"refTime":"2025-07-25T21:00:00:Z","depth":0,"parameterNumber":3,"parameterNumberName":"V-component_of_WINDS"},"data":[0,0,0,0,0,0,0,0,0,0,0,0,0,0,0,0,0,0,0,0,0,0,0,0,0,0,0,0,0,0,0,0,0,0,0,0,0,0,0,0,0,0,0,0,0,0,0,0,0,0,0,0,0,0,0,0,0,0,3.1936,3.1936,0,3.1977,3.1978,3.1978,3.1924,3.1922,3.192,3.1918,3.1959,3.1962,3.1964,0,0,0,0,0,0,0,0,0,0,0,0,0,3.1806,3.1809,3.1936,3.1936,3.1937,3.1977,3.1978,3.1978,3.1924,3.1921,3.1919,3.1917,3.1958,3.1961,3.1965,0,0,0,0,0,0,0,0,0,0,0,0,0,3.1857,3.181,3.1936,3.1915,3.1913,3.1977,3.1978,3.1978,3.1924,3.1921,3.1918,3.1916,3.1957,3.1961,3.1965,3.2051,0,0,3.1979,3.198,0,0,0,0,0,0,0,0,3.1854,3.1861,3.1917,3.1916,3.1915,3.1942,3.1947,3.2003,3.1925,3.192,3.1918,3.1914,3.1955,3.196,3.1974,3.2053,3.2055,3.1979,3.1982,3.1984,3.1985,0,0,0,0,0,0,0,3.185,3.1859,3.1952,3.1918,3.1917,3.1902,3.1906,3.1957,3.1954,3.192,3.1916,3.1922,3.1954,3.197,3.1975,3.2056,3.1979,3.1983,3.1985,3.1987,3.2204,3.2207,0,0,0,0,0,0,3.185,3.1857,3.1951,3.1953,3.1876,3.1907,3.1911,3.1936,3.1953,3.1953,3.1925,3.1919,3.1964,3.1969,3.1976,3.2075,3.1983,3.1988,3.199,3.2201,3.2205,3.2208,0,0,0,0,0,0,3.1847,3.1859,3.1949,3.1904,3.1914,3.1912,3.1941,3.1939,3.1954,3.1956,3.1955,3.1942,3.1962,3.197,3.2032,3.2076,3.199,3.1994,3.2197,3.2202,3.2206,3.2277,0,0,0,0,0,0,3.1844,3.1858,3.1892,3.1905,3.1917,3.2006,3.1944,3.1942,3.1962,3.1956,3.1972,3.1972,3.196,3.2026,3.2037,3.2081,3.1997,3.2193,3.2199,3.2205,3.2271,3.2283,3.2294,0,0,0,0,0,3.1839,3.1911,3.1894,3.1906,3.1959,3.2009,3.2016,3.2001,3.1966,3.1999,3.2,3.1971,3.207,3.2033,3.2044,3.209,3.219,3.2197,3.2204,3.2265,3.2281,3.2294,0,0,0,0,0,0,3.1903,3.1912,3.1894,3.1972,3.199,3.2,3.2041,3.2019,3.2047,3.204,3.202,3.2024,3.209,3.2097,3.2055,3.2173,3.2124,3.2134,3.2166,3.2181,3.2193,3.2189,3.2001,0,0,0,0,0,3.1926,3.1966,3.1972,3.204,3.205,3.2044,3.2065,3.2052,3.207,3.2078,3.2083,3.2101,3.2135,3.2159,3.2191,3.2271,3.2272,3.2308,3.232,3.233,3.2338,3.2378,3.2393,3.2231,3.2231,3.2231,0,0,3.1974,3.1984,3.2011,3.2053,3.2066,3.2106,3.2051,3.2097,3.2127,3.2084,3.2143,3.2148,3.2166,3.2237,3.2269,3.2245,3.2383,3.2339,3.2346,3.2349,3.2387,3.2402,3.2416,3.2236,3.2235,3.2234,0,0,3.2082,3.2095,3.2152,3.2165,3.2184,3.2179,3.2193,3.2206,3.2207,3.2266,3.2234,3.2268,3.2329,3.2343,3.2358,3.2468,3.2441,3.2479,3.254,3.258,3.2592,3.2603,3.2641,3.2654,3.2487,3.2487,3.2487,0,3.214,3.2201,3.2184,3.2231,3.2249,3.2213,3.2268,3.2282,3.2311,3.2324,3.2296,3.237,3.238,3.2452,3.2479,3.2493,3.2506,3.2477,3.2592,3.2603,3.2613,3.2648,3.2663,3.2491,3.2491,3.2491,3.249,0,3.2269,3.2311,3.2354,3.2382,3.2406,3.2457,3.2447,3.2472,3.2456,3.2454,3.2512,3.2523,3.2555,3.2571,3.2557,3.2641,3.2625,3.2595,3.2546,3.2633,3.2666,3.2679,3.2498,3.2496,3.2495,3.2494,0,0,3.242,3.2436,3.2452,3.2463,3.248,3.2512,3.2561,3.2592,3.2613,3.2634,3.2672,3.2724,3.2695,3.2712,3.2698,3.2733,3.2816,3.2698,3.2698,3.2718,3.2907,3.2928,3.2944,3.2799,3.2802,3.2804,3.2904,0,3.2526,3.2611,3.2595,3.2677,3.2714,3.2679,3.2721,3.2735,3.2733,3.2764,3.2762,3.2797,3.2758,3.2768,3.2801,3.28,3.2854,3.2792,3.2834,3.2836,3.2829,3.2961,3.2985,3.3079,3.2917,3.2919,3.2921,0,3.2662,3.2686,3.2772,3.278,3.2795,3.2834,3.2859,3.289,3.2904,3.29,3.2918,3.2897,3.2944,3.2894,3.2957,3.2915,3.2931,3.2933,3.2936,3.2938,3.2883,3.2966,3.3109,3.3123,3.2941,3.294,3.2938,0,3.2761,3.2815,3.2872,3.2883,3.2895,3.2922,3.2928,3.294,3.2959,3.2981,3.2993,3.3021,3.3036,3.3057,3.3043,3.3009,3.3107,3.3057,3.3104,3.3104,3.3126,3.3125,3.3273,3.3139,3.3139,3.3138,3.3138,0,3.2881,3.2934,3.2916,3.2952,3.3009,3.299,3.3047,3.3049,3.3059,3.3093,3.3064,3.3096,3.3076,3.3107,3.3096,3.3148,3.3156,3.3153,3.3149,3.3155,3.3155,3.3164,3.3157,3.3142,3.3141,3.3141,3.314,0,3.3001,3.2992,3.3051,3.3057,3.3059,3.3101,3.3105,3.3137,3.3132,3.3175,3.3184,3.3177,3.321,3.3199,3.3236,3.3228,3.3294,3.3283,3.3289,3.3286,3.3333,3.3328,3.3491,3.351,3.3365,3.3367,3.3368,0,3.3077,3.3117,3.3126,3.3146,3.3154,3.3188,3.3206,3.3188,3.3208,3.3226,3.3255,3.3286,3.331,3.3365,3.3362,3.3389,3.3377,3.3433,3.3381,3.3385,3.3376,3.3373,3.3376,3.3443,3.3444,3.3446,3.3447,0,3.3213,3.3206,3.3234,3.3259,3.3282,3.3302,3.3318,3.3336,3.3319,3.3343,3.3377,3.3395,3.3431,3.3461,3.3485,3.349,3.3465,3.3463,3.3475,3.348,3.3482,3.3479,3.3315,3.3459,3.3458,3.3457,3.3456,3.3456,3.3313,3.3345,3.3356,3.3387,3.3397,3.3413,3.3442,3.344,3.3468,3.3495,3.3483,3.3521,3.3532,3.3561,3.3569,3.3598,3.3577,3.3595,3.3599,3.3603,3.3608,3.3478,3.3603,3.3602,3.3602,3.3602,3.3601,0,3.3445,3.345,3.3479,3.3502,3.3526,3.35,3.3516,3.3538,3.3572,3.3584,3.3607,3.3644,3.3673,3.3672,3.3698,3.3721,3.371,3.3728,3.3726,3.3727,3.3627,3.3613,3.3737,3.3736,3.3736,3.3736,3.3736,3.3736,3.3517,3.357,3.3563,3.3619,3.3623,3.366,3.3671,3.3685,3.3694,3.3737,3.376,3.3759,3.3765,3.3791,3.3815,3.3814,3.3824,3.3847,3.3841,3.3748,3.3734,3.3721,3.3708,3.3849,3.385,3.3938,3.3939,3.394]}]]